| time (UTC) | temp F | wind direction | speed knots | gust knots | rain 1hr in | rain 24hr in | rain mn in | humidity % | barometer mb |
| 20260510190059 | 81 | 133 | 2.6 | 9.6 | 0.00 | 0.33 | 0.01 | 75 | 1016.3 |
| 20260510184600 | 81 | 165 | 4.3 | 9.6 | 0.00 | 0.51 | 0.01 | 75 | 1016.2 |
| 20260510183055 | 82 | 169 | 4.3 | 8.7 | 0.00 | 0.51 | 0.01 | 74 | 1016.4 |
| 20260510181600 | 81 | 164 | 4.3 | 7.8 | 0.00 | 0.51 | 0.01 | 77 | 1016.6 |
| 20260510180054 | 82 | 120 | 1.7 | 7.8 | 0.00 | 0.51 | 0.01 | 77 | 1016.7 |
| 20260510174553 | 82 | 151 | 4.3 | 7.0 | 0.00 | 0.82 | 0.01 | 74 | 1016.9 |
| 20260510173050 | 82 | 110 | 1.7 | 7.0 | 0.00 | 0.82 | 0.01 | 75 | 1017.1 |
| 20260510171552 | 82 | 76 | 0.9 | 5.2 | 0.00 | 0.82 | 0.01 | 78 | 1017.2 |
| 20260510170054 | 81 | 74 | 0.0 | 6.1 | 0.00 | 0.82 | 0.01 | 81 | 1017.2 |
| 20260510164544 | 80 | 355 | 0.0 | 4.3 | 0.00 | 0.90 | 0.01 | 83 | 1017.4 |
| 20260510163041 | 79 | 360 | 0.9 | 5.2 | 0.00 | 0.90 | 0.01 | 85 | 1017.6 |
| 20260510161538 | 78 | 119 | 0.9 | 6.1 | 0.00 | 0.90 | 0.01 | 86 | 1017.5 |
| 20260510160038 | 77 | 94 | 2.6 | 6.1 | 0.00 | 0.90 | 0.01 | 87 | 1017.3 |
| 20260510154532 | 75 | 112 | 1.7 | 6.1 | 0.00 | 1.08 | 0.01 | 89 | 1017.2 |
| 20260510153034 | 74 | 84 | 1.7 | 5.2 | 0.00 | 1.08 | 0.01 | 82 | 1017.3 |
| 20260510151525 | 73 | 90 | 0.9 | 7.0 | 0.01 | 1.08 | 0.01 | 80 | 1017.2 |
| 20260510150033 | 72 | 109 | 1.7 | 7.0 | 0.01 | 1.08 | 0.01 | 81 | 1017.5 |
| 20260510144522 | 70 | 107 | 0.9 | 4.3 | 0.01 | 1.21 | 0.01 | 81 | 1017.5 |
| 20260510143021 | 70 | 88 | 0.0 | 4.3 | 0.01 | 1.21 | 0.01 | 82 | 1017.6 |
| 20260510141525 | 69 | 94 | 0.0 | 4.3 | 0.00 | 1.20 | 0.00 | 82 | 1017.7 |
| 20260510140012 | 69 | 78 | 0.9 | 4.3 | 0.00 | 1.20 | 0.00 | 82 | 1017.6 |
| 20260510134512 | 69 | 81 | 0.9 | 2.6 | 0.00 | 2.09 | 0.00 | 82 | 1017.3 |
| 20260510133007 | 68 | 77 | 0.0 | 3.5 | 0.00 | 2.09 | 0.00 | 82 | 1017.2 |
| 20260510131506 | 67 | 71 | 0.0 | 1.7 | 0.00 | 2.09 | 0.00 | 82 | 1017.1 |
| 20260510130003 | 66 | 71 | 0.0 | 3.5 | 0.00 | 2.09 | 0.00 | 82 | 1016.9 |
| 20260510124501 | 66 | 65 | 0.0 | 0.0 | 0.00 | 2.46 | 0.00 | 83 | 1016.8 |
| 20260510123116 | 66 | 66 | 0.9 | 2.6 | 0.00 | 2.46 | 0.00 | 83 | 1016.6 |
| 20260510121559 | 65 | 65 | 0.0 | 0.0 | 0.00 | 2.46 | 0.00 | 83 | 1016.6 |
| 20260510120056 | 65 | 65 | 0.0 | 3.5 | 0.00 | 2.46 | 0.00 | 83 | 1016.2 |
| 20260510114554 | 65 | 65 | 0.0 | 1.7 | 0.00 | 2.46 | 0.00 | 83 | 1015.8 |
| 20260510113051 | 65 | 65 | 0.9 | 3.5 | 0.00 | 2.46 | 0.00 | 83 | 1015.6 |
| 20260510111551 | 65 | 61 | 0.0 | 1.7 | 0.00 | 2.46 | 0.00 | 83 | 1015.2 |
| 20260510110050 | 65 | 49 | 1.7 | 3.5 | 0.00 | 2.46 | 0.00 | 83 | 1015.0 |
| 20260510104545 | 65 | 29 | 0.0 | 3.5 | 0.00 | 2.46 | 0.00 | 83 | 1014.6 |
| 20260510103051 | 65 | 9 | 0.0 | 0.9 | 0.00 | 2.46 | 0.00 | 83 | 1014.4 |
| 20260510101540 | 65 | 9 | 0.0 | 0.9 | 0.00 | 2.46 | 0.00 | 83 | 1014.1 |
| 20260510100040 | 65 | 9 | 0.0 | 0.9 | 0.00 | 2.46 | 0.00 | 83 | 1014.1 |
| 20260510094544 | 65 | 9 | 0.0 | 1.7 | 0.00 | 4.08 | 0.00 | 83 | 1014.0 |
| 20260510093039 | 65 | 5 | 0.0 | 5.2 | 0.00 | 4.08 | 0.00 | 83 | 1013.9 |
| 20260510091537 | 65 | 27 | 0.0 | 4.3 | 0.00 | 4.08 | 0.00 | 83 | 1013.9 |
| 20260510090036 | 65 | 45 | 0.0 | 2.6 | 0.00 | 4.08 | 0.00 | 83 | 1013.9 |
| 20260510084536 | 65 | 54 | 0.0 | 1.7 | 0.00 | 4.16 | 0.00 | 83 | 1013.8 |
| 20260510083036 | 65 | 54 | 0.0 | 0.9 | 0.00 | 4.16 | 0.00 | 83 | 1013.6 |
| 20260510081542 | 66 | 54 | 0.0 | 0.0 | 0.00 | 4.16 | 0.00 | 83 | 1013.6 |
| 20260510080034 | 66 | 54 | 0.0 | 1.7 | 0.00 | 4.16 | 0.00 | 83 | 1013.4 |
| 20260510074533 | 66 | 54 | 0.0 | 0.0 | 0.00 | 4.16 | 0.00 | 83 | 1013.4 |
| 20260510073031 | 66 | 53 | 0.0 | 1.7 | 0.00 | 4.16 | 0.00 | 83 | 1013.3 |
| 20260510071532 | 66 | 53 | 0.0 | 1.7 | 0.00 | 4.16 | 0.00 | 83 | 1013.3 |
| 20260510070034 | 66 | 55 | 0.0 | 2.6 | 0.00 | 4.16 | 0.00 | 83 | 1013.5 |
| 20260510064529 | 66 | 80 | 0.0 | 2.6 | 0.00 | 4.16 | 0.00 | 83 | 1013.5 |
| 20260510063029 | 67 | 93 | 0.0 | 0.0 | 0.00 | 4.16 | 0.00 | 83 | 1013.5 |
| 20260510061530 | 67 | 93 | 0.0 | 0.0 | 0.00 | 4.16 | 0.00 | 83 | 1013.6 |
| 20260510060028 | 67 | 93 | 0.0 | 1.7 | 0.00 | 4.16 | 0.00 | 83 | 1013.7 |
| 20260510054531 | 67 | 94 | 0.9 | 5.2 | 0.00 | 4.16 | 0.00 | 83 | 1013.5 |
| 20260510053025 | 67 | 184 | 0.0 | 0.0 | 0.00 | 4.16 | 0.00 | 83 | 1013.6 |
| 20260510051532 | 67 | 184 | 0.0 | 0.0 | 0.00 | 4.16 | 0.00 | 83 | 1013.8 |
| 20260510050022 | 67 | 184 | 0.0 | 0.9 | 0.00 | 4.16 | 0.00 | 83 | 1013.7 |
| 20260510044522 | 67 | 184 | 0.0 | 0.9 | 0.00 | 4.16 | 4.16 | 83 | 1013.6 |
| 20260510043024 | 67 | 184 | 0.0 | 0.0 | 0.00 | 4.16 | 4.16 | 83 | 1013.8 |
| 20260510041520 | 67 | 184 | 0.0 | 0.9 | 0.00 | 4.16 | 4.16 | 83 | 1013.5 |
| 20260510040021 | 68 | 186 | 0.0 | 0.0 | 0.00 | 4.16 | 4.16 | 83 | 1013.9 |
| 20260510034520 | 68 | 186 | 0.0 | 0.0 | 0.00 | 4.16 | 4.16 | 84 | 1014.3 |
| 20260510033020 | 68 | 186 | 0.0 | 0.0 | 0.00 | 4.16 | 4.16 | 84 | 1014.3 |
| 20260510031519 | 68 | 186 | 0.0 | 1.7 | 0.00 | 4.16 | 4.16 | 84 | 1014.2 |
| 20260510030018 | 68 | 189 | 0.0 | 0.0 | 0.00 | 4.16 | 4.16 | 83 | 1014.0 |
| 20260510024519 | 68 | 189 | 0.0 | 0.9 | 0.00 | 4.16 | 4.16 | 83 | 1014.3 |
| 20260510023017 | 68 | 189 | 0.0 | 0.9 | 0.01 | 4.16 | 4.16 | 84 | 1014.0 |
| 20260510021525 | 68 | 161 | 0.0 | 1.7 | 0.01 | 4.16 | 4.16 | 84 | 1013.3 |
| 20260510020017 | 68 | 166 | 2.6 | 5.2 | 0.02 | 4.16 | 4.16 | 84 | 1012.9 |
| 20260510014517 | 68 | 137 | 1.7 | 5.2 | 0.02 | 4.16 | 4.16 | 84 | 1012.6 |
| 20260510013015 | 68 | 157 | 0.0 | 0.0 | 0.02 | 4.15 | 4.15 | 84 | 1013.2 |
| 20260510011516 | 68 | 157 | 0.0 | 3.5 | 0.02 | 4.15 | 4.15 | 84 | 1013.4 |
| 20260510010015 | 68 | 148 | 1.7 | 3.5 | 0.01 | 4.13 | 4.13 | 84 | 1012.9 |
| 20260510004514 | 68 | 148 | 0.0 | 1.7 | 0.02 | 4.19 | 4.13 | 84 | 1012.9 |
| 20260510003014 | 68 | 145 | 0.9 | 4.3 | 0.02 | 4.18 | 4.13 | 84 | 1012.9 |
| 20260510001512 | 68 | 121 | 0.0 | 3.5 | 0.03 | 4.18 | 4.13 | 84 | 1013.0 |
| 20260510000018 | 68 | 158 | 0.0 | 0.9 | 0.03 | 4.18 | 4.13 | 84 | 1013.3 |
| 20260509234512 | 68 | 158 | 0.0 | 0.0 | 0.02 | 4.22 | 4.12 | 84 | 1013.4 |
| 20260509233011 | 68 | 158 | 0.0 | 0.0 | 0.02 | 4.21 | 4.11 | 84 | 1013.6 |
| 20260509231512 | 68 | 158 | 0.0 | 1.7 | 0.01 | 4.20 | 4.09 | 84 | 1013.4 |
| 20260509230011 | 68 | 158 | 0.0 | 0.9 | 0.02 | 4.20 | 4.09 | 84 | 1013.0 |
| 20260509224510 | 67 | 158 | 0.0 | 0.0 | 0.02 | 4.22 | 4.09 | 84 | 1012.2 |
| 20260509223017 | 67 | 158 | 0.0 | 2.6 | 0.01 | 4.21 | 4.09 | 84 | 1012.0 |
| 20260509221509 | 67 | 182 | 0.9 | 5.2 | 0.01 | 4.21 | 4.09 | 84 | 1012.6 |
| 20260509220011 | 67 | 173 | 0.9 | 3.5 | 0.00 | 4.20 | 4.08 | 84 | 1012.9 |
| 20260509214509 | 67 | 172 | 0.0 | 0.0 | 0.00 | 4.62 | 4.08 | 84 | 1012.9 |
| 20260509213008 | 67 | 172 | 0.0 | 5.2 | 0.01 | 4.62 | 4.08 | 84 | 1012.0 |
| 20260509211514 | 67 | 171 | 0.9 | 5.2 | 0.02 | 4.62 | 4.08 | 84 | 1011.3 |
| 20260509210007 | 67 | 164 | 2.6 | 6.1 | 0.04 | 4.62 | 4.08 | 84 | 1011.3 |
| 20260509204507 | 67 | 146 | 0.9 | 3.5 | 0.08 | 4.91 | 4.08 | 84 | 1011.7 |
| 20260509203008 | 67 | 151 | 0.0 | 0.0 | 0.12 | 4.90 | 4.07 | 84 | 1012.9 |
| 20260509201506 | 67 | 151 | 0.0 | 1.7 | 0.16 | 4.88 | 4.05 | 84 | 1013.0 |
| 20260509200005 | 67 | 156 | 0.0 | 5.2 | 0.18 | 4.86 | 4.03 | 84 | 1012.8 |
| 20260509194505 | 67 | 154 | 0.9 | 4.3 | 0.22 | 4.84 | 4.00 | 84 | 1012.8 |
| 20260509193007 | 67 | 192 | 0.0 | 3.5 | 0.21 | 4.79 | 3.95 | 84 | 1013.7 |
| 20260509191504 | 67 | 171 | 0.0 | 4.3 | 0.19 | 4.74 | 3.90 | 84 | 1013.5 |